Kevin Valencia

Chefscout - Tigres
25 Nov 2027
Donnerstag
Verarbeitung

Persönlichkeit

Anpassungsfähigkeit (17) Ehrgeiz (12) Kontroverse (14) Loyalität (11) Druck (6) Professionalität (13) Fairness (17) Temperament (17)

Profil

Trainerstil Demokratisch
Lizenz Nationale A
Entschlossenheit 10
Menschenführung 5
Motivation 5
Disziplin 5
Arbeitszufriedenheit
100%
Ermüdung
0%
Rolle Chefscout
Gehalt 31.7K p/W
Vertrag 14.03.2028

Leistung

Verhalten Gut
Trainingseffektivität
34%
Spielerentwicklung
40%
Verletzungsprävention
50%
Taktische Umsetzung
35%

Letzte Ereignisse

Nahm an einer Scouting-Besprechung teil 7T her
Nahm an einer Scouting-Besprechung teil 14T her
Nahm an einer Scouting-Besprechung teil 21T her
Nahm an einer Scouting-Besprechung teil 28T her
Nahm an einer Scouting-Besprechung teil 35T her
Nahm an einer Scouting-Besprechung teil 42T her
Nahm an einer Scouting-Besprechung teil 49T her
Nahm an einer Scouting-Besprechung teil 56T her

Aktuell beobachtet

98
Spieler Verein Status Fähigkeit Vertrauen Beobachtet Zuletzt beobachtet Letzte Stimme
Yulián Montaño Depor Aktiv 85 / 67 48% 1 19.07.2027 -
Alejo Osella Independiente Rivadavia Aktiv 105 / 129 40% 1 29.11.2026 -
Franco Hanashiro Colegiales Aktiv 109 / 94 40% 1 29.11.2026 -
Santiago Cáseres Lanús Aktiv 132 / 115 40% 2 27.11.2026 -
Abel Bustos Racing Aktiv 123 / 104 40% 1 27.11.2026 -
Matías Kabalín Ferro Carril Oeste Aktiv 107 / 106 40% 1 26.11.2026 -
Siro Rosané Estudiantes Aktiv 123 / 118 40% 4 25.11.2026 -
Matías Valenti Estudiantes Aktiv 106 / 118 40% 3 25.11.2026 -
Leonard Costa Independiente Rivadavia Aktiv 126 / 117 40% 3 24.11.2026 -
Thomas Ortega Quilmes Aktiv 113 / 122 40% 2 24.11.2026 -
Eneko Astigarraga Real Sociedad Aktiv 113 / 79 40% 2 22.11.2026 -
Oscar Villa Puebla Aktiv 76 / 83 40% 1 22.11.2026 -
Valentín Serrano Arsenal Aktiv 97 / 123 40% 2 21.11.2026 -
Franco Díaz Temperley Aktiv 130 / 135 40% 1 21.11.2026 -
Diego Magallanes Defensores Aktiv 93 / 101 40% 1 19.11.2026 -
Sebastián Santos Leon Aktiv 126 / 95 40% 1 19.11.2026 -
Juan Yangali San Telmo Aktiv 126 / 124 40% 3 17.11.2026 -
Alejo Tabares All Boys Aktiv 116 / 111 40% 2 17.11.2026 -
Sebastián Pereira Union Espanola Aktiv 102 / 106 40% 3 14.11.2026 -
Mateo Seoane Gimnasia La Plata Aktiv 122 / 130 40% 1 14.11.2026 -
Andrés Micolta Pachuca Aktiv 119 / 97 40% 3 13.11.2026 -
José Cotrina Bekescsaba Aktiv 118 / 109 40% 1 12.11.2026 -
Mateo Mendoza Godoy Cruz Aktiv 111 / 111 40% 1 12.11.2026 -
Agustín Benítez Defensores Aktiv 126 / 111 40% 1 11.11.2026 -
Matías Sánchez Racing Aktiv 94 / 99 40% 1 10.11.2026 -
Esneyder Mena Deportivo Pasto Aktiv 105 / 116 40% 1 07.11.2026 -
Mathías Silvera Chaco For Ever Aktiv 121 / 108 40% 1 07.11.2026 -
Vicente Poggi Godoy Cruz Aktiv 136 / 115 40% 3 06.11.2026 -
Nahuel Gallardo San Martín Aktiv 114 / 121 40% 1 06.11.2026 -
Gonzalo Mottes Chacarita Juniors Aktiv 121 / 123 40% 1 01.11.2026 -
Maico Quiroz Güemes Aktiv 123 / 118 40% 1 01.11.2026 -
Vicente Durán San Luis Aktiv 104 / 119 40% 2 29.10.2026 -
Fernando Bersano Madryn Aktiv 118 / 120 40% 1 29.10.2026 -
Alfredo Giraldo La Equidad Aktiv 136 / 129 40% 2 25.10.2026 -
Cristián Gutiérrez Union La Calera Aktiv 111 / 95 40% 1 25.10.2026 -
Cristhián Rivas Estudiantes de Merida Aktiv 102 / 127 40% 2 23.10.2026 -
Francisco Facello Chacarita Juniors Aktiv 116 / 108 40% 1 23.10.2026 -
Gino Barbieri Almagro Aktiv 106 / 123 40% 2 21.10.2026 -
Nicolás Thaller Colón Aktiv 123 / 98 40% 1 21.10.2026 -
Elías Calderón Central Norte Aktiv 117 / 98 40% 1 18.10.2026 -
Samuel Velásquez Atletico Nacional Aktiv 109 / 130 40% 1 18.10.2026 -
Marco Saravia Progreso Aktiv 116 / 114 40% 1 17.10.2026 -
Fernando Duré Estudiantes Aktiv 104 / 95 40% 1 17.10.2026 -
Nicolás Paz San Martín SJ Aktiv 107 / 130 40% 3 15.10.2026 -
Brian Nievas Chaco For Ever Aktiv 107 / 117 40% 2 14.10.2026 -
Diego Hernández Aguilas Doradas Aktiv 132 / 126 40% 1 12.10.2026 -
Maximiliano Ribero Central Norte Aktiv 120 / 112 40% 1 10.10.2026 -
Yvo Calleros Madryn Aktiv 123 / 115 40% 1 10.10.2026 -
Pedro Souto Temperley Aktiv 123 / 109 40% 1 08.10.2026 -
Felipe Chiappini River Plate Aktiv 90 / 116 40% 1 07.10.2026 -
Santiago Jiménez Deportivo Pasto Aktiv 133 / 100 40% 1 03.10.2026 -
Milton Leyendeker Chacarita Juniors Aktiv 103 / 113 40% 1 28.09.2026 -
Martín González San Telmo Aktiv 104 / 105 40% 1 28.09.2026 -
Maximiliano Luayza Koot Tristán Suárez Aktiv 118 / 100 40% 1 27.09.2026 -
Fernando Miranda Colegiales Aktiv 104 / 99 40% 2 24.09.2026 -
Erik de los Santos Racing Aktiv 124 / 103 40% 1 24.09.2026 -
Kevin Palacios Santos Laguna Aktiv 127 / 125 40% 2 22.09.2026 -
Fernando Rodríguez Almirante Brown Aktiv 103 / 120 40% 1 22.09.2026 -
Alcides Benítez Belgrano Aktiv 126 / 113 40% 1 19.09.2026 -
Alan Olinick Racing Aktiv 95 / 112 40% 1 18.09.2026 -
Valentín Fascendini Talleres Aktiv 110 / 119 40% 2 17.09.2026 -
Fredy Martínez Boston River Aktiv 106 / 101 40% 1 17.09.2026 -
Bianneider Tamayo Universidad de Chile Aktiv 117 / 114 40% 2 15.09.2026 -
Jesús Yendis Caracas Aktiv 93 / 93 40% 1 15.09.2026 -
Facundo Velazco San Marcos de Arica Aktiv 111 / 106 40% 1 14.09.2026 -
Nicolás Hernández Atletico Nacional Aktiv 110 / 124 40% 1 13.09.2026 -
Matías Melluso Gimnasia La Plata Aktiv 131 / 123 40% 1 13.09.2026 -
Gonzalo Errecalde Gimnasia La Plata Aktiv 105 / 126 40% 1 09.09.2026 -
Jimmy Martínez Universidad Catolica Aktiv 107 / 91 40% 1 08.09.2026 -
Ricardo Echeverría Santos Laguna Aktiv 123 / 135 40% 1 08.09.2026 -
Francisco Manenti Metropolitanos Aktiv 105 / 109 40% 2 02.09.2026 -
Alonso Aceves Monterrey Aktiv 113 / 101 40% 1 02.09.2026 -
Julián Marchio San Martín SJ Aktiv 95 / 115 40% 2 31.08.2026 -
Ángel Zapata Tijuana Aktiv 84 / 101 40% 2 31.08.2026 -
Jean Franco Fuentes Metropolitanos Aktiv 114 / 104 40% 1 30.08.2026 -
Rivaldo Lozano Atlas Aktiv 123 / 131 40% 1 30.08.2026 -
Agustín Pérez Deportivo Tachira Aktiv 89 / 107 40% 1 27.08.2026 -
Abraham Bahachille Carabobo Aktiv 117 / 104 40% 1 27.08.2026 -
Diego Osio Deportivo La Guaira Aktiv 122 / 114 40% 1 26.08.2026 -
Mauricio Cardillo San Lorenzo Aktiv 126 / 114 40% 1 24.08.2026 -
Nicolás Fernández Maipú Aktiv 115 / 121 40% 1 23.08.2026 -
Antonio Ceza Palestino Aktiv 99 / 117 40% 1 21.08.2026 -
Sergio Sulbarán Zamora Aktiv 111 / 89 40% 1 21.08.2026 -
Martín Gianoli Deportivo La Guaira Aktiv 103 / 115 40% 1 20.08.2026 -
Martín Villarroel Santiago Wanderers Aktiv 82 / 84 40% 1 20.08.2026 -
Mathías de Ritis San Lorenzo Aktiv 119 / 127 40% 1 17.08.2026 -
Jeyson Rojas Colo-Colo Aktiv 114 / 117 40% 1 16.08.2026 -
Patricio Pizarro Huracán Aktiv 113 / 102 40% 1 16.08.2026 -
Luis Gonzalez Atletico Venezuela Aktiv 109 / 125 40% 1 15.08.2026 -
Pablo Monroy Pumas UNAM Aktiv 126 / 99 40% 1 15.08.2026 -
Cristopher Rodríguez Estudiantes de Merida Aktiv 102 / 108 40% 1 14.08.2026 -
Bautista Barros Schelotto Gimnasia La Plata Aktiv 123 / 104 40% 1 11.08.2026 -
Roger Manríque Zulia Aktiv 94 / 107 40% 1 09.08.2026 -
Johan Madrid Sporting Cristal Aktiv 103 / 112 40% 1 09.08.2026 -
Hugo Martínez Libertad Aktiv 100 / 97 40% 1 06.08.2026 -
Martín Rodríguez Mitre Aktiv 114 / 94 40% 1 03.08.2026 -
Miguel Pernía Carabobo Aktiv 111 / 100 40% 1 03.08.2026 -
Santiago González Tigre Aktiv 113 / 143 40% 1 02.08.2026 -